Location: Coleto Creek Park and Reservoir
(28.7196°N, 97.1740°W)
Time: 16:09:12
(UTC-06:00)

Hubble Space Telescope - Visible Passes

Search period start: 18 January 2017 00:00
Search period end: 28 January 2017 00:00
Orbit: 538 x 542 km, 28.5° (Epoch: 18 January)

Date Brightness Start Highest point End Pass type
(mag) Time Alt. Az. Time Alt. Az. Time Alt. Az.
18 Jan 1.9 19:12:45 10° W 19:16:38 40° SSW 19:19:11 19° SE visible
19 Jan 2.3 19:02:56 10° W 19:06:40 32° SSW 19:10:22 10° SE visible
20 Jan 2.7 18:53:11 10° W 18:56:40 26° SSW 19:00:09 10° SE visible
21 Jan 3.2 18:43:32 10° WSW 18:46:40 21° SSW 18:49:48 10° SSE visible
22 Jan 3.5 18:34:02 10° WSW 18:36:39 16° SSW 18:39:16 10° SSE visible
23 Jan 3.7 18:24:51 10° SW 18:26:38 12° SSW 18:28:25 10° S visible
